Location: Stara Lesna
(49.1528°N, 20.2911°E)
Time: 05:40:42
(UTC+02:00)

Starlink (trailer) - Pass Details

Date: 21 September 2019
Orbit: 548 x 551 km, 53.0° (Epoch: 22 October)

Event Time Altitude Azimuth Distance (km) Brightness Sun altitude
Exits shadow 04:27:59 49° 262° (W) 719 3.7 -19.0°
Maximum altitude 04:29:02 78° 339° (NNW) 567 3.6 -18.9°
Drops below altitude 10° 04:33:12 10° 66° (ENE) 1,830 7.6 -18.2°
Sets 04:35:27 0° 68° (ENE) 2,726 8.9 -17.9°
